Flag for Netherlands Weather past 2 weeks in Kralendijk (Bonaire), Netherlands

Now
82 °F

Scattered clouds.


Feels Like: 89 °F
Forecast: 81 / 87 °F
Wind: 18 mph from East

Location: Flamingo Airport - Bonaire

Current Time: Jul 29, 2014 at 9:13:45 AM

Latest Report: Jul 29, 2014 at 8:00 AM


Visibility: N/A

Pressure: 29.95 "Hg

Humidity: 79%

Dew point: 75 °F

Location of Kralendijk (Bonaire)Location

Historic Weather in Kralendijk (Bonaire) — Graph

°F

Kralendijk (Bonaire) temperature yesterday

Maximum temperature yesterday: 88 °F (at 11:00 AM)
Minimum temperature yesterday: 81 °F (at 3:00 AM)
Average temperature yesterday: 84 °F

Past Weeks' High & Low Weather Summary

 TemperatureHumidityPressure
High88 °F (Jul 14, 11:00 AM)94% (Jul 16, 6:00 AM)30.04 "Hg (Jul 16, 6:00 AM)
Low79 °F (Jul 16, 6:00 AM)62% (Jul 25, 3:00 PM)29.83 "Hg (Jul 26, 5:00 PM)
Average83 °F78%29.95 "Hg
* Reported Jul 14 7:00 AM — Jul 29 7:00 AM, Kralendijk (Bonaire), Weather by CustomWeather, © 2014

Note: Actual official high and low records may vary slightly from our data, if they occured in-between our weather recording intervals... More about our weather records

Advertising

Kralendijk (Bonaire) weather history for previous 24 hours

 ConditionsComfort  
Time TempWeatherWind HumidityBarometerVisibility
7:00 AM
Jul 29
81 °FWarm.15 mph84%29.95 "HgN/A
6:00 AM81 °FWarm.16 mph84%29.95 "HgN/A
5:00 AM81 °FWarm.15 mph84%29.95 "HgN/A
4:00 AM81 °FWarm.14 mph79%29.95 "HgN/A
3:00 AM81 °FWarm.16 mph84%29.95 "HgN/A
2:00 AM81 °FWarm.13 mph84%29.95 "HgN/A
1:00 AM81 °FWarm.16 mph84%29.95 "HgN/A
12:00 AM82 °FWarm.N/A79%29.98 "HgN/A
11:00 PM
Jul 28
82 °FWarm.16 mph79%29.98 "HgN/A
10:00 PM82 °FPassing clouds.16 mph79%29.98 "HgN/A
9:00 PM82 °FWarm.16 mph79%29.95 "HgN/A
8:00 PM82 °FWarm.17 mph79%29.95 "HgN/A
7:00 PMN/A18 mphN/AN/AN/A
6:00 PM84 °FPassing clouds.21 mph74%29.92 "HgN/A
5:00 PM84 °FWarm.21 mph74%29.92 "HgN/A
4:00 PMN/A18 mphN/AN/AN/A
3:00 PM86 °FScattered clouds.18 mph70%29.95 "HgN/A
2:00 PM88 °FScattered clouds.20 mph66%29.98 "HgN/A
1:00 PM88 °FScattered clouds.21 mph66%30.01 "HgN/A
12:00 PM88 °FWarm.18 mph70%30.01 "HgN/A
11:00 AM88 °FScattered clouds.22 mph70%30.01 "HgN/A
10:00 AM84 °FPartly sunny.20 mph79%30.01 "HgN/A
Weather by CustomWeather, © 2014

See weather overviewHow to use our weather pages